Location: Hodgson Observatory
(42.9992°N, 96.7577°W)
Time: 10:51:22
(UTC-06:00)

Daily predictions for brighter satellites

Satellite Brightness Start Highest point End
(mag) Time Altitude Azimuth Time Altitude Azimuth Time Altitude Azimuth
Cosmos 1428 Rocket 4.5 17:16:28 10° N 17:22:40 82° E 17:28:48 10° S
NOSS 3-2 (A) 4.1 17:17:19 10° NNW 17:24:39 57° NE 17:32:39 10° SE
COSMO-SKYMED 1 4.3 17:22:52 10° ENE 17:25:09 14° E 17:27:27 10° ESE
Meteor 1-19 Rocket 4.3 17:21:21 10° S 17:26:58 63° E 17:32:43 10° NNE
MSX 4.1 17:22:08 10° S 17:27:54 76° WSW 17:33:42 10° NNW
CZ-4 R/B 2.1 17:24:52 10° SE 17:28:16 29° ENE 17:31:45 10° N
CORIOLIS 4.5 17:23:13 10° SE 17:28:17 43° ENE 17:33:22 10° N
Cosmos 2227 Rocket 2.2 17:23:55 10° NNW 17:29:36 76° ENE 17:35:14 10° SSE
Cosmos 1975 Rocket 3.8 17:26:01 10° SSW 17:30:26 59° W 17:34:53 10° N
Abrixas rocket 3.3 17:27:52 10° WNW 17:30:49 30° N 17:33:46 10° ENE
NOSS 3-2 (C) 4.2 17:26:23 10° NNW 17:33:37 52° NE 17:41:32 10° ESE
AQUARIUS 4.4 17:29:23 10° SSE 17:33:43 50° ENE 17:38:04 10° N
ATLAS 3B R/B 2.7 17:28:23 10° NW 17:35:07 85° SW 17:41:38 10° SSE
IDEFIX/ARIANE 42P 4.2 17:34:22 10° SSW 17:39:09 38° W 17:43:59 10° NNW
Cosmos 158 Rocket 3.8 17:35:06 10° NNW 17:40:12 82° ENE 17:45:08 10° SSE
Cosmos 1271 Rocket 3.1 17:36:26 10° NNW 17:40:15 70° W 17:44:06 10° S
ATLAS 2AS CENTAUR R/B 3.5 17:32:47 10° SW 17:40:33 64° NW 17:48:40 10° NNE
Cosmos 2279 Rocket 4.3 17:36:58 10° SSW 17:43:13 73° W 17:49:30 10° N
NOSS 8 (A) 4.2 17:40:19 10° SW 17:43:36 88° ESE 17:46:55 10° NE
ISS -0.9 17:41:21 10° W 17:43:54 21° SW 17:46:26 10° S
Meteor 2-9 Rocket 4.1 17:38:31 10° N 17:43:59 65° ENE 17:49:17 10° SSE
Cosmos 1025 Rocket 4.2 17:41:23 10° SE 17:44:39 22° E 17:47:57 10° NE
Cosmos 1980 Rocket 3.3 17:41:46 10° SSE 17:46:16 25° ESE 17:50:26 11° NE
Cosmos 2084 4.3 17:44:05 10° S 17:47:46 30° ESE 17:50:39 14° ENE
Okean 2 4.5 17:47:00 10° SE 17:50:18 24° E 17:53:32 10° NE
Cosmos 1656 3.6 17:45:37 10° SSW 17:51:09 70° ESE 17:56:38 10° NNE
USA 215 3.2 17:44:56 10° ESE 17:51:28 80° NE 17:58:01 10° NW
Cosmos 1666 3.4 17:48:13 10° NNW 17:51:54 56° W 17:55:33 10° S
Cosmos 2297 Rocket 2.4 17:50:07 10° NNW 17:55:48 80° WSW 18:01:27 10° SSE
DELTA 2 R/B (1) 4.1 17:51:35 10° W 17:57:02 59° S 18:02:31 10° ESE
CZ-2C R/B 4.0 17:53:18 10° NNE 17:57:56 52° E 18:02:33 10° S
Cosmos 1536 Rocket 3.5 17:54:21 10° S 17:58:41 86° ESE 18:03:03 10° N
CZ-2C R/B 4.5 17:56:15 10° SSW 18:00:53 33° W 18:05:29 10° NNW
NOSS 3-4 (A) 3.7 17:56:00 10° SSW 18:02:03 56° ESE 18:07:29 14° NE
NOSS 3-4 (C) 3.7 17:56:06 10° SSW 18:02:07 55° ESE 18:07:33 14° NE
Meteor 1-23 Rocket 4.3 17:56:42 10° S 18:02:19 59° E 18:07:53 10° NNE
Cosmos 1484 Rocket 3.3 18:00:55 10° S 18:04:54 64° W 18:08:54 10° NNW
USA 161 4.5 18:07:27 10° NNW 18:09:25 16° WNW 18:11:25 10° WSW
MOS 1 4.4 18:05:06 10° SE 18:10:33 50° ENE 18:16:02 10° N
CENTAUR R/B 3.4 18:05:53 10° NNW 18:13:16 44° NE 18:21:12 10° ESE
SKYMED 2 3.9 18:09:36 11° NNE 18:13:35 44° E 18:17:44 10° S
DNEPR-1 R/B 4.3 18:09:15 10° NNW 18:14:10 49° NE 18:20:06 10° SE
Cosmos 1241 Rocket 4.4 18:09:07 10° SSW 18:15:28 74° ESE 18:20:49 15° NE
Cosmos 1606 Rocket 4.4 18:12:31 10° NNE 18:16:14 27° ENE 18:19:55 10° SE
SMAP 3.8 18:12:21 10° S 18:16:55 57° W 18:21:31 10° NNW
METEOR-M 4.0 18:17:32 10° SSE 18:22:52 79° ENE 18:28:14 10° N
NOSS 2-2 (E) 4.2 18:21:15 10° S 18:24:44 32° ESE 18:25:38 29° E
CZ-4 R/B 4.4 18:21:05 10° SSE 18:25:13 87° E 18:29:23 10° NNW
Lacrosse 5 rocket 3.5 18:24:03 10° SSE 18:25:21 13° SE 18:25:21 13° SE
FENGYUN 3A 3.7 18:21:21 10° SSE 18:26:33 53° ENE 18:31:46 10° N
Nadezhda 2 Rocket 4.5 18:21:52 10° N 18:28:13 72° E 18:34:36 10° SSE
Meteor 2-4 Rocket 4.3 18:23:01 10° SSW 18:28:19 55° WNW 18:33:35 10° N
Cosmos 2263 Rocket 3.5 18:24:41 10° N 18:27:54 19° NE 18:27:54 19° NE
BREEZE-M DEB (TANK) 3.8 18:26:31 10° NW 18:29:05 35° NNE 18:30:38 27° NE
Meteor 1-28 Rocket 4.2 18:25:39 10° N 18:29:17 47° WNW 18:32:55 10° SSW
SL-16 R/B 3.6 18:26:37 10° SE 18:29:37 18° ESE 18:29:37 18° ESE
NOSS 2-2 (C) 4.1 18:28:28 10° S 18:31:56 32° ESE 18:32:18 31° ESE
ALOS 2.2 18:28:21 10° SSE 18:32:56 60° ENE 18:37:33 10° N
Cosmos 2322 Rocket 3.6 18:30:09 10° SE 18:32:59 19° ESE 18:32:59 19° ESE
Ariane Rocket 4.4 18:30:22 10° SSW 18:35:06 40° W 18:39:51 10° NNW
USA 116 4.0 18:34:14 14° N 18:36:46 48° WNW 18:39:46 10° SSW
Gblst 52 Del rocket 4.3 18:31:41 10° WNW 18:37:20 85° SW 18:42:42 14° SE
Cosmos 494 Rocket 3.9 18:32:55 10° NNW 18:38:13 73° ENE 18:43:26 10° SSE
SPOT 3 Rocket 3.4 18:34:11 10° SSE 18:39:18 69° ENE 18:44:27 10° N
Cosmos 2360 4.2 18:35:58 10° S 18:41:36 64° ESE 18:44:44 27° NE
Cosmos 1515 4.0 18:38:47 10° SSW 18:42:33 66° W 18:45:37 15° N
RESURS DK-1 2.5 18:38:44 10° S 18:42:43 50° ESE 18:43:08 47° E
Cosmos 1184 Rocket 4.0 18:40:03 10° S 18:41:55 29° SSE 18:41:55 29° SSE
Cosmos 1892 Rocket 4.2 18:40:38 10° SSE 18:44:10 37° ESE 18:44:10 37° ESE
YAOGAN 1 3.4 18:40:44 10° S 18:44:56 53° W 18:49:12 10° NNW
MTI 4.1 18:44:45 31° N 18:46:07 64° WNW 18:49:19 10° SSW
EO 1 Del DPAF 3.1 18:45:57 37° NNE 18:47:25 85° ESE 18:51:14 10° SSW
Cosmos 2251 Rocket 3.5 18:42:34 10° NNW 18:47:49 59° ENE 18:52:58 10° SSE
Cosmos 1697 Rocket 3.1 18:42:16 10° SW 18:47:51 63° WNW 18:52:23 16° NNE
ERS-2 2.3 18:49:09 10° S 18:52:48 72° WSW 18:56:29 10° NNW
COSMOS 2455 4.4 18:51:56 10° N 18:54:54 19° NNE 18:54:54 19° NNE
PSLV R/B 4.1 18:56:09 10° W 18:58:47 44° SW 18:58:47 44° SW
COSMO-SKYMED 1 3.2 18:58:12 15° N 19:01:40 55° WNW 19:05:53 10° SSW
SJ 16-02 3.6 18:58:29 10° WSW 19:01:55 22° WNW 19:05:22 10° N
CZ-4 R/B 4.0 19:00:21 10° SW 19:03:20 21° W 19:06:24 10° NW
Abrixas rocket 4.2 19:04:46 10° WNW 19:06:20 23° NW 19:06:20 23° NW
S3M 3.8 19:02:22 10° S 19:08:24 65° E 19:11:12 33° NNE
Cosmos 1386 Rocket 4.5 19:12:35 10° N 19:18:54 60° E 19:25:13 10° SSE
FengYun 1-2 T 4.2 19:23:04 10° SSE 19:28:42 86° WSW 19:34:24 10° NNW
Cosmos 1980 Rocket 2.9 19:24:23 10° SW 19:29:54 50° WNW 19:32:15 32° N
Cosmos 1553 Rocket 4.3 19:34:24 10° SSW 19:40:46 65° W 19:45:46 17° N
Meteor 1-22 Rocket 4.4 19:40:15 10° NNW 19:46:09 70° W 19:51:46 10° S
Cosmos 1745 Rocket 4.4 19:47:23 10° NNW 19:53:30 62° W 19:59:39 10° S
CENTAUR R/B 3.6 19:56:33 10° NW 20:04:20 57° WSW 20:09:41 23° S
Lacrosse 5 rocket 4.1 20:00:19 10° SW 20:01:05 15° SW 20:01:05 15° SW
Cosmos 2263 Rocket 4.0 20:07:40 10° NNW 20:09:39 23° NNW 20:09:39 23° NNW
SL-16 R/B 3.5 20:08:25 10° SW 20:11:33 33° SW 20:11:33 33° SW
Cosmos 2322 Rocket 3.7 20:12:03 10° SW 20:14:52 30° SW 20:14:52 30° SW
Cosmos 2344 4.0 20:26:20 10° SW 20:32:09 57° SW 20:32:09 57° SW
